Tracking 33485 objects as of 15-Mar-2026
HD Live streaming from Space Station
objects crossing your sky now

STARLINK-35471

Track STARLINK-35471 now!
10-day predictions
STARLINK-35471 is classified as:


NORAD ID: 65864
Int'l Code: 2025-223L
Perigee: 481.4 km
Apogee: 482.8 km
Inclination: 53.2 °
Period: 94.1 minutes
Semi major axis: 6853 km
RCS: Unknown
Launch date: October 3, 2025
Source: United States (US)
Launch site: AIR FORCE WESTERN TEST RANGE (AFWTR)
Your satellite tracking list
Your tracking list is empty




NASA's NSSDC Master Catalog

Two Line Element Set (TLE):
1 65864U 25223L   26073.81798940  .00073329  00000-0  24575-2 0  9996
2 65864  53.1585 270.1528 0001057  72.1388 287.9728 15.30280876 24992
Source of the keplerian elements: AFSPC